EW7237 Weather Reports


time (UTC)temp
C
wind
direction
speed
KPH
gust
KPH
rain 1hr
cm
rain 24hr
cm
rain mn
cm
humidity
%
barometer
mb
20260506013043 8 120 0.0 0.0 0.00 1.14 0.03 96 1007.1
20260506011623 8 120 0.0 0.0 0.00 1.14 0.03 95 1007.2
20260506010027 8 120 0.0 0.0 0.00 1.14 0.03 95 1007.3
20260506004607 9 120 0.0 0.0 0.00 1.14 0.03 95 1007.3
20260506003019 10 120 0.0 0.0 0.00 1.14 0.03 95 1007.2
20260506001537 9 120 0.0 0.0 0.00 1.14 0.03 95 1007.5
20260506000114 10 120 0.0 0.0 0.00 1.14 0.03 95 1007.6
20260505234506 10 120 0.0 0.0 0.03 1.14 0.03 95 1007.6
20260505233028 10 120 0.0 0.0 0.03 1.14 0.03 94 1007.7
20260505231539 10 120 0.0 0.0 0.03 1.14 0.03 94 1007.8
20260505230109 10 120 0.0 0.0 0.03 1.14 0.03 94 1007.8
20260505224506 10 120 0.0 0.0 0.00 1.12 0.00 93 1007.9
20260505223024 10 120 0.0 0.0 0.00 1.12 0.00 93 1007.9
20260505221554 10 120 0.0 0.0 0.05 1.12 0.00 93 1007.9
20260505220100 11 120 0.0 0.0 0.08 1.12 0.00 92 1008.0
20260505214522 11 120 0.0 0.0 0.23 1.12 1.12 92 1008.2
20260505213034 11 120 0.0 8.0 0.33 1.12 1.12 92 1008.4
20260505211558 11 120 0.0 0.0 0.38 1.09 1.09 92 1008.4
20260505210032 11 120 0.0 0.0 0.53 1.02 1.02 93 1008.3
20260505204519 11 120 0.0 0.0 0.61 0.89 0.89 92 1008.2
20260505203019 11 120 0.0 0.0 0.79 0.79 0.79 90 1007.9
20260505201518 11 120 0.0 0.0 0.71 0.71 0.71 89 1007.7
20260505200018 12 121 0.0 0.0 0.48 0.48 0.48 87 1007.5
20260505194517 12 121 0.0 6.4 0.23 0.23 0.23 83 1007.1
20260505193103 13 120 0.0 0.0 0.00 0.00 0.00 78 1006.6
20260505191510 13 120 0.0 0.0 0.00 0.00 0.00 74 1005.7
20260505190005 14 121 0.0 0.0 0.00 0.00 0.00 70 1005.4
20260505184531 15 121 0.0 0.0 0.00 0.00 0.00 67 1005.1
20260505183043 15 121 0.0 0.0 0.00 0.00 0.00 65 1005.0
20260505181559 16 121 0.0 0.0 0.00 0.00 0.00 62 1005.1
20260505180037 16 120 0.0 0.0 0.00 0.00 0.00 62 1005.0
20260505174600 16 121 0.0 12.9 0.00 0.00 0.00 61 1004.6
20260505173014 17 121 0.0 16.1 0.00 0.00 0.00 60 1004.4
20260505171539 17 120 0.0 11.3 0.00 0.00 0.00 63 1004.3
20260505170057 18 120 0.0 14.5 0.00 0.00 0.00 64 1004.2
20260505164523 18 121 0.0 1.6 0.00 0.00 0.00 57 1004.1
20260505163052 19 120 0.0 0.0 0.00 0.00 0.00 54 1004.1
20260505161508 19 120 0.0 0.0 0.00 0.00 0.00 53 1004.1
20260505153010 18 121 0.0 0.0 0.00 0.00 0.00 59 1004.0
20260505151538 18 120 0.0 0.0 0.00 0.00 0.00 58 1004.2
20260505150120 18 120 0.0 0.0 0.00 0.00 0.00 60 1004.2
20260505124503 21 121 0.0 1.6 0.00 0.00 0.00 37 1004.3
20260505123022 22 120 0.0 3.2 0.00 0.00 0.00 35 1004.2
20260505121610 21 120 0.0 1.6 0.00 0.00 0.00 35 1004.3
20260505120059 21 120 0.0 6.4 0.00 0.00 0.00 36 1004.2
20260505114526 21 121 0.0 8.0 0.00 0.00 0.00 35 1004.3
20260505113046 22 120 0.0 0.0 0.00 0.00 0.00 34 1004.3
20260505111600 22 120 0.0 1.6 0.00 0.00 0.00 34 1004.4
20260505101511 22 120 0.0 1.6 0.00 0.00 0.00 35 1005.0
20260505100118 21 121 0.0 0.0 0.00 0.00 0.00 36 1005.2
20260505094511 21 120 0.0 0.0 0.00 0.00 0.00 39 1005.5
20260505093026 21 120 0.0 0.0 0.00 0.00 0.00 43 1005.6
20260505091600 20 120 0.0 0.0 0.00 0.00 0.00 38 1005.9
20260505090007 20 120 0.0 0.0 0.00 0.00 0.00 46 1006.1
20260505084530 21 120 0.0 0.0 0.00 0.00 0.00 46 1006.2
20260505083050 20 120 0.0 0.0 0.00 0.00 0.00 51 1006.3
20260505081601 19 121 0.0 0.0 0.00 0.00 0.00 55 1006.4
20260505080015 17 120 0.0 0.0 0.00 0.00 0.00 58 1006.6
20260505074543 16 120 0.0 0.0 0.00 0.00 0.00 65 1006.8
20260505073103 16 120 0.0 0.0 0.00 0.00 0.00 67 1007.0
20260505071534 15 120 0.0 0.0 0.00 0.00 0.00 71 1007.2
20260505070043 15 120 0.0 0.0 0.00 0.00 0.00 73 1007.4
20260505064608 15 120 0.0 0.0 0.00 0.00 0.00 74 1007.5
20260505063028 13 121 0.0 0.0 0.00 0.00 0.00 80 1007.5
20260505061539 12 120 0.0 0.0 0.00 0.00 0.00 81 1007.5
20260505060057 12 120 0.0 0.0 0.00 0.00 0.00 82 1007.6
20260505054507 11 120 0.0 0.0 0.00 0.00 0.00 86 1007.6
20260505053026 9 120 0.0 0.0 0.00 0.00 0.00 91 1007.7
20260505051545 7 120 0.0 0.0 0.00 0.00 0.00 96 1007.7
20260505041505 5 121 0.0 0.0 0.00 0.00 0.00 94 1007.9
20260505040016 5 120 0.0 0.0 0.00 0.00 0.00 93 1007.9
20260505034536 5 121 0.0 0.0 0.00 0.00 0.00 94 1007.8
20260505033057 5 121 0.0 0.0 0.00 0.00 0.00 93 1007.8
20260505031522 6 120 0.0 0.0 0.00 0.00 0.00 93 1007.9
20260505030025 6 121 0.0 0.0 0.00 0.00 0.00 93 1008.0
20260505024603 6 120 0.0 0.0 0.00 0.00 0.00 92 1008.1
20260505023021 6 120 0.0 0.0 0.00 0.00 0.00 92 1008.2
20260505021558 6 120 0.0 0.0 0.00 0.00 0.00 92 1008.2
20260505020013 7 120 0.0 0.0 0.00 0.00 0.00 92 1008.3
20260505014537 7 120 0.0 0.0 0.00 0.00 0.00 92 1008.4